| time (UTC) | temp F | wind direction | speed MPH | gust MPH | rain 1hr in | rain 24hr in | rain mn in | humidity % | barometer mb |
| 20260903110542 | 58 | 20 | 0.0 | 0.0 | 0.00 | 0.00 | 0.00 | 80 | 1014.5 |
| 20260903110327 | 58 | 20 | 0.0 | 0.0 | 0.00 | 0.00 | 0.00 | 80 | 1014.5 |
| 20260903105022 | 58 | 20 | 0.0 | 0.0 | 0.00 | 0.00 | 0.00 | 79 | 1014.5 |
| 20260903104830 | 58 | 20 | 0.0 | 0.0 | 0.00 | 0.00 | 0.00 | 79 | 1014.5 |
| 20260903103527 | 58 | 20 | 0.0 | 0.0 | 0.00 | 0.00 | 0.00 | 80 | 1014.5 |
| 20260903103332 | 58 | 20 | 0.0 | 0.0 | 0.00 | 0.00 | 0.00 | 80 | 1014.5 |
| 20260903102025 | 59 | 20 | 0.0 | 0.0 | 0.00 | 0.00 | 0.00 | 79 | 1014.4 |
| 20260903101831 | 59 | 20 | 0.0 | 0.0 | 0.00 | 0.00 | 0.00 | 79 | 1014.4 |
| 20260903100524 | 59 | 20 | 0.0 | 0.0 | 0.00 | 0.00 | 0.00 | 79 | 1014.5 |
| 20260903100334 | 59 | 21 | 0.0 | 0.0 | 0.00 | 0.00 | 0.00 | 79 | 1014.5 |
| 20260903095028 | 60 | 20 | 0.0 | 0.0 | 0.00 | 0.00 | 0.00 | 78 | 1014.6 |
| 20260903094835 | 60 | 21 | 0.0 | 0.0 | 0.00 | 0.00 | 0.00 | 78 | 1014.6 |
| 20260903093528 | 60 | 20 | 0.0 | 0.0 | 0.00 | 0.00 | 0.00 | 77 | 1014.7 |
| 20260903093317 | 60 | 20 | 0.0 | 0.0 | 0.00 | 0.00 | 0.00 | 77 | 1014.7 |
| 20260903092038 | 61 | 20 | 0.0 | 0.0 | 0.00 | 0.00 | 0.00 | 76 | 1014.8 |
| 20260903091827 | 61 | 20 | 0.0 | 0.0 | 0.00 | 0.00 | 0.00 | 76 | 1014.8 |
| 20260903090541 | 61 | 21 | 0.0 | 0.0 | 0.00 | 0.00 | 0.00 | 75 | 1015.0 |
| 20260903090326 | 61 | 20 | 0.0 | 0.0 | 0.00 | 0.00 | 0.00 | 75 | 1015.0 |
| 20260903085024 | 62 | 20 | 0.0 | 0.0 | 0.00 | 0.00 | 0.00 | 76 | 1015.1 |
| 20260903084830 | 62 | 21 | 0.0 | 0.0 | 0.00 | 0.00 | 0.00 | 76 | 1015.1 |
| 20260903083547 | 62 | 20 | 0.0 | 0.0 | 0.00 | 0.00 | 0.00 | 78 | 1015.1 |
| 20260903083336 | 62 | 20 | 0.0 | 0.0 | 0.00 | 0.00 | 0.00 | 78 | 1015.1 |
| 20260903082028 | 62 | 20 | 0.0 | 0.0 | 0.00 | 0.00 | 0.00 | 78 | 1015.1 |
| 20260903081834 | 62 | 20 | 0.0 | 0.0 | 0.00 | 0.00 | 0.00 | 78 | 1015.1 |
| 20260903080550 | 62 | 20 | 0.0 | 0.0 | 0.00 | 0.00 | 0.00 | 78 | 1015.1 |
| 20260903080333 | 62 | 21 | 0.0 | 0.0 | 0.00 | 0.00 | 0.00 | 78 | 1015.1 |
| 20260903075031 | 62 | 20 | 0.0 | 0.0 | 0.00 | 0.00 | 0.00 | 78 | 1015.1 |
| 20260903074900 | 62 | 21 | 0.0 | 0.0 | 0.00 | 0.00 | 0.00 | 78 | 1015.1 |
| 20260903073539 | 62 | 21 | 0.0 | 0.0 | 0.00 | 0.00 | 0.00 | 78 | 1015.1 |
| 20260903073325 | 62 | 20 | 0.0 | 0.0 | 0.00 | 0.00 | 0.00 | 78 | 1015.1 |
| 20260903072103 | 62 | 20 | 0.0 | 0.0 | 0.00 | 0.00 | 0.00 | 79 | 1015.2 |
| 20260903071830 | 62 | 20 | 0.0 | 0.0 | 0.00 | 0.00 | 0.00 | 79 | 1015.2 |
| 20260903070544 | 62 | 21 | 0.0 | 0.0 | 0.00 | 0.00 | 0.00 | 79 | 1015.2 |
| 20260903070354 | 62 | 21 | 0.0 | 0.0 | 0.00 | 0.00 | 0.00 | 79 | 1015.2 |
| 20260903065026 | 62 | 20 | 0.0 | 0.0 | 0.00 | 0.00 | 0.00 | 79 | 1015.2 |
| 20260903064830 | 62 | 21 | 0.0 | 0.0 | 0.00 | 0.00 | 0.00 | 79 | 1015.2 |
| 20260903063543 | 61 | 21 | 0.0 | 0.0 | 0.00 | 0.00 | 0.00 | 78 | 1015.1 |
| 20260903063348 | 61 | 20 | 0.0 | 0.0 | 0.00 | 0.00 | 0.00 | 78 | 1015.1 |
| 20260903062025 | 62 | 20 | 0.0 | 0.0 | 0.00 | 0.00 | 0.00 | 77 | 1015.2 |
| 20260903061835 | 62 | 20 | 0.0 | 0.0 | 0.00 | 0.00 | 0.00 | 77 | 1015.2 |
| 20260903060529 | 62 | 21 | 0.0 | 0.0 | 0.00 | 0.00 | 0.00 | 76 | 1015.4 |
| 20260903060357 | 62 | 20 | 0.0 | 0.0 | 0.00 | 0.00 | 0.00 | 76 | 1015.4 |
| 20260903055033 | 62 | 20 | 0.0 | 0.0 | 0.00 | 0.00 | 0.00 | 75 | 1015.5 |
| 20260903054859 | 62 | 20 | 0.0 | 0.0 | 0.00 | 0.00 | 0.00 | 75 | 1015.5 |
| 20260903053532 | 63 | 21 | 0.0 | 0.0 | 0.00 | 0.00 | 0.00 | 74 | 1015.6 |
| 20260903053358 | 63 | 21 | 0.0 | 0.0 | 0.00 | 0.00 | 0.00 | 74 | 1015.6 |
| 20260903052056 | 63 | 21 | 0.0 | 0.0 | 0.00 | 0.00 | 0.00 | 73 | 1015.6 |
| 20260903051825 | 63 | 21 | 0.0 | 0.0 | 0.00 | 0.00 | 0.00 | 73 | 1015.6 |
| 20260903050524 | 63 | 21 | 0.0 | 0.0 | 0.00 | 0.00 | 0.00 | 73 | 1015.6 |
| 20260903050333 | 63 | 20 | 0.0 | 0.0 | 0.00 | 0.00 | 0.00 | 73 | 1015.6 |
| 20260903045029 | 63 | 20 | 0.0 | 0.0 | 0.00 | 0.00 | 0.00 | 72 | 1015.4 |
| 20260903044838 | 63 | 21 | 0.0 | 0.0 | 0.00 | 0.00 | 0.00 | 72 | 1015.4 |
| 20260903043551 | 64 | 20 | 0.0 | 0.0 | 0.00 | 0.00 | 0.00 | 72 | 1015.2 |
| 20260903043336 | 64 | 20 | 0.0 | 0.0 | 0.00 | 0.00 | 0.00 | 71 | 1015.2 |
| 20260903042031 | 64 | 21 | 0.0 | 0.0 | 0.00 | 0.00 | 0.00 | 70 | 1015.2 |
| 20260903041837 | 64 | 20 | 0.0 | 0.0 | 0.00 | 0.00 | 0.00 | 69 | 1015.2 |
| 20260903040531 | 65 | 21 | 0.0 | 0.0 | 0.00 | 0.00 | 0.00 | 68 | 1015.0 |
| 20260903040341 | 65 | 21 | 0.0 | 0.0 | 0.00 | 0.00 | 0.00 | 68 | 1015.0 |
| 20260903035058 | 65 | 20 | 0.0 | 0.0 | 0.00 | 0.00 | 0.00 | 66 | 1014.7 |
| 20260903034843 | 65 | 21 | 0.0 | 0.0 | 0.00 | 0.00 | 0.00 | 66 | 1014.7 |
| 20260903033537 | 65 | 21 | 0.0 | 0.0 | 0.00 | 0.00 | 0.00 | 64 | 1014.6 |
| 20260903033345 | 66 | 20 | 0.0 | 0.0 | 0.00 | 0.00 | 0.00 | 64 | 1014.6 |
| 20260903032100 | 66 | 20 | 0.0 | 0.0 | 0.00 | 0.00 | 0.00 | 62 | 1014.6 |
| 20260903031829 | 66 | 20 | 0.0 | 0.0 | 0.00 | 0.00 | 0.00 | 62 | 1014.6 |
| 20260903030543 | 66 | 21 | 0.0 | 0.0 | 0.00 | 0.00 | 0.00 | 61 | 1014.5 |
| 20260903030329 | 66 | 21 | 0.0 | 0.0 | 0.00 | 0.00 | 0.00 | 61 | 1014.5 |
| 20260903025044 | 67 | 21 | 0.0 | 0.0 | 0.00 | 0.00 | 0.00 | 59 | 1014.5 |
| 20260903024830 | 67 | 19 | 0.0 | 0.0 | 0.00 | 0.00 | 0.00 | 59 | 1014.5 |
| 20260903023524 | 68 | 13 | 0.0 | 0.0 | 0.00 | 0.00 | 0.00 | 57 | 1014.3 |
| 20260903023336 | 68 | 13 | 0.0 | 0.0 | 0.00 | 0.00 | 0.00 | 57 | 1014.3 |
| 20260903022033 | 69 | 5 | 0.0 | 0.0 | 0.00 | 0.00 | 0.00 | 54 | 1014.3 |
| 20260903021839 | 69 | 5 | 0.0 | 0.0 | 0.00 | 0.00 | 0.00 | 54 | 1014.3 |
| 20260903020533 | 70 | 355 | 0.0 | 0.0 | 0.00 | 0.00 | 0.00 | 52 | 1014.3 |
| 20260903020342 | 70 | 339 | 0.0 | 0.0 | 0.00 | 0.00 | 0.00 | 52 | 1014.3 |
| 20260903015036 | 71 | 340 | 0.0 | 0.0 | 0.00 | 0.00 | 0.00 | 52 | 1014.2 |
| 20260903014904 | 71 | 340 | 0.0 | 0.0 | 0.00 | 0.00 | 0.00 | 53 | 1014.2 |
| 20260903013540 | 72 | 324 | 0.0 | 0.0 | 0.00 | 0.00 | 0.00 | 51 | 1014.2 |
| 20260903013346 | 72 | 17 | 0.0 | 0.0 | 0.00 | 0.00 | 0.00 | 51 | 1014.2 |
| 20260903012100 | 73 | 313 | 0.0 | 0.0 | 0.00 | 0.00 | 0.00 | 50 | 1014.1 |
| 20260903011832 | 73 | 271 | 0.0 | 0.0 | 0.00 | 0.00 | 0.00 | 49 | 1014.1 |
| 20260903010549 | 74 | 346 | 0.0 | 0.0 | 0.00 | 0.00 | 0.00 | 49 | 1014.0 |
| 20260903010334 | 74 | 332 | 1.0 | 0.0 | 0.00 | 0.00 | 0.00 | 49 | 1014.0 |
| 20260903005026 | 75 | 5 | 0.0 | 0.0 | 0.00 | 0.00 | 0.00 | 48 | 1014.0 |
| 20260903004851 | 75 | 5 | 0.0 | 0.0 | 0.00 | 0.00 | 0.00 | 48 | 1014.0 |
| 20260903003529 | 75 | 9 | 0.0 | 0.0 | 0.00 | 0.00 | 0.00 | 49 | 1013.9 |
| 20260903003339 | 75 | 344 | 1.0 | 0.0 | 0.00 | 0.00 | 0.00 | 50 | 1013.9 |
| 20260903002035 | 77 | 312 | 0.0 | 0.0 | 0.00 | 0.00 | 0.00 | 46 | 1013.9 |
| 20260903001840 | 77 | 15 | 0.0 | 0.0 | 0.00 | 0.00 | 0.00 | 46 | 1013.9 |
| 20260903000535 | 78 | 350 | 0.0 | 0.0 | 0.00 | 0.00 | 0.00 | 45 | 1014.0 |
| 20260903000340 | 79 | 350 | 0.0 | 0.0 | 0.00 | 0.00 | 0.00 | 45 | 1014.0 |
| 20260902235032 | 79 | 317 | 0.0 | 0.0 | 0.00 | 0.00 | 0.00 | 43 | 1014.0 |
| 20260902234842 | 79 | 289 | 0.0 | 0.0 | 0.00 | 0.00 | 0.00 | 43 | 1014.0 |
| 20260902233534 | 79 | 230 | 2.0 | 0.0 | 0.00 | 0.00 | 0.00 | 44 | 1013.8 |
| 20260902233340 | 79 | 243 | 2.0 | 0.0 | 0.00 | 0.00 | 0.00 | 42 | 1013.8 |
| 20260902232035 | 79 | 223 | 2.0 | 0.0 | 0.00 | 0.00 | 0.00 | 36 | 1014.0 |
| 20260902231839 | 79 | 250 | 3.0 | 0.0 | 0.00 | 0.00 | 0.00 | 37 | 1014.0 |
| 20260902205026 | 75 | 230 | 3.0 | 0.0 | 0.00 | 0.00 | 0.00 | 46 | 1015.3 |
| 20260902204829 | 75 | 213 | 3.0 | 0.0 | 0.00 | 0.00 | 0.00 | 48 | 1015.3 |
| 20260902203528 | 75 | 226 | 4.0 | 0.0 | 0.00 | 0.00 | 0.00 | 48 | 1015.3 |
| 20260902203353 | 75 | 217 | 4.0 | 0.0 | 0.00 | 0.00 | 0.00 | 47 | 1015.3 |
| 20260902202031 | 75 | 211 | 4.0 | 0.0 | 0.00 | 0.00 | 0.00 | 47 | 1015.4 |
| 20260902201820 | 75 | 217 | 4.0 | 0.0 | 0.00 | 0.00 | 0.00 | 47 | 1015.4 |
| 20260902200519 | 75 | 227 | 4.0 | 0.0 | 0.00 | 0.00 | 0.00 | 46 | 1015.5 |
| 20260902200328 | 75 | 242 | 4.0 | 0.0 | 0.00 | 0.00 | 0.00 | 45 | 1015.5 |
| 20260902195021 | 75 | 257 | 4.0 | 0.0 | 0.00 | 0.00 | 0.00 | 44 | 1015.5 |
| 20260902194826 | 75 | 233 | 3.0 | 0.0 | 0.00 | 0.00 | 0.00 | 45 | 1015.5 |
| 20260902193538 | 74 | 217 | 3.0 | 0.0 | 0.00 | 0.00 | 0.00 | 45 | 1015.6 |
| 20260902193328 | 75 | 221 | 3.0 | 0.0 | 0.00 | 0.00 | 0.00 | 46 | 1015.6 |
| 20260902192022 | 74 | 244 | 6.0 | 0.0 | 0.00 | 0.00 | 0.00 | 47 | 1015.6 |
| 20260902191827 | 74 | 219 | 6.0 | 0.0 | 0.00 | 0.00 | 0.00 | 47 | 1015.6 |
| 20260902190523 | 74 | 254 | 4.0 | 0.0 | 0.00 | 0.00 | 0.00 | 48 | 1015.7 |
| 20260902190329 | 74 | 220 | 3.0 | 0.0 | 0.00 | 0.00 | 0.00 | 48 | 1015.7 |
| 20260902185023 | 73 | 253 | 5.0 | 0.0 | 0.00 | 0.00 | 0.00 | 50 | 1015.7 |
| 20260902184855 | 73 | 217 | 5.0 | 0.0 | 0.00 | 0.00 | 0.00 | 51 | 1015.7 |
| 20260902183527 | 73 | 241 | 4.0 | 0.0 | 0.00 | 0.00 | 0.00 | 51 | 1015.7 |
| 20260902183334 | 73 | 259 | 4.0 | 0.0 | 0.00 | 0.00 | 0.00 | 52 | 1015.7 |
| 20260902182033 | 72 | 214 | 5.0 | 0.0 | 0.00 | 0.00 | 0.00 | 51 | 1015.7 |
| 20260902181822 | 72 | 220 | 4.0 | 0.0 | 0.00 | 0.00 | 0.00 | 51 | 1015.7 |
| 20260902180521 | 73 | 21 | 1.0 | 0.0 | 0.00 | 0.00 | 0.00 | 48 | 1015.7 |
| 20260902180327 | 73 | 21 | 1.0 | 0.0 | 0.00 | 0.00 | 0.00 | 48 | 1015.7 |
| 20260902175039 | 72 | 155 | 1.0 | 0.0 | 0.00 | 0.00 | 0.00 | 50 | 1015.7 |
| 20260902174827 | 72 | 210 | 1.0 | 0.0 | 0.00 | 0.00 | 0.00 | 53 | 1015.7 |
| 20260902173521 | 71 | 215 | 5.0 | 0.0 | 0.00 | 0.00 | 0.00 | 55 | 1015.7 |
| 20260902173334 | 70 | 215 | 5.0 | 0.0 | 0.00 | 0.00 | 0.00 | 56 | 1015.7 |
| 20260902172027 | 70 | 219 | 3.0 | 0.0 | 0.00 | 0.00 | 0.00 | 57 | 1015.7 |
| 20260902171835 | 70 | 184 | 2.0 | 0.0 | 0.00 | 0.00 | 0.00 | 58 | 1015.7 |
| 20260902170529 | 69 | 107 | 0.0 | 0.0 | 0.00 | 0.00 | 0.00 | 55 | 1015.7 |
| 20260902170333 | 68 | 107 | 0.0 | 0.0 | 0.00 | 0.00 | 0.00 | 56 | 1015.7 |
| 20260902165028 | 68 | 107 | 0.0 | 0.0 | 0.00 | 0.00 | 0.00 | 54 | 1015.7 |
| 20260902164839 | 69 | 107 | 0.0 | 0.0 | 0.00 | 0.00 | 0.00 | 54 | 1015.7 |
| 20260902163533 | 67 | 105 | 0.0 | 0.0 | 0.00 | 0.00 | 0.00 | 56 | 1015.7 |
| 20260902163359 | 67 | 105 | 0.0 | 0.0 | 0.00 | 0.00 | 0.00 | 56 | 1015.7 |
| 20260902162031 | 66 | 105 | 1.0 | 0.0 | 0.00 | 0.00 | 0.00 | 58 | 1015.8 |
| 20260902161857 | 66 | 104 | 0.0 | 0.0 | 0.00 | 0.00 | 0.00 | 58 | 1015.8 |
| 20260902160530 | 65 | 101 | 0.0 | 0.0 | 0.00 | 0.00 | 0.00 | 62 | 1015.8 |
| 20260902160339 | 64 | 101 | 0.0 | 0.0 | 0.00 | 0.00 | 0.00 | 63 | 1015.8 |
| 20260902155032 | 63 | 104 | 0.0 | 0.0 | 0.00 | 0.00 | 0.00 | 66 | 1015.7 |
| 20260902154837 | 63 | 104 | 0.0 | 0.0 | 0.00 | 0.00 | 0.00 | 66 | 1015.7 |
| 20260902153551 | 62 | 104 | 0.0 | 0.0 | 0.00 | 0.00 | 0.00 | 68 | 1015.5 |
| 20260902153336 | 62 | 104 | 0.0 | 0.0 | 0.00 | 0.00 | 0.00 | 68 | 1015.5 |
| 20260902152030 | 60 | 99 | 1.0 | 0.0 | 0.00 | 0.00 | 0.00 | 71 | 1015.2 |
| 20260902151840 | 60 | 98 | 0.0 | 0.0 | 0.00 | 0.00 | 0.00 | 72 | 1015.2 |
| 20260902150516 | 59 | 136 | 1.0 | 0.0 | 0.00 | 0.00 | 0.00 | 74 | 1015.3 |
| 20260902150324 | 59 | 141 | 1.0 | 0.0 | 0.00 | 0.00 | 0.00 | 74 | 1015.3 |
| 20260902145044 | 59 | 100 | 1.0 | 0.0 | 0.00 | 0.00 | 0.00 | 74 | 1015.3 |
| 20260902144833 | 59 | 100 | 1.0 | 0.0 | 0.00 | 0.00 | 0.00 | 74 | 1015.3 |
| 20260902143543 | 58 | 107 | 2.0 | 0.0 | 0.00 | 0.00 | 0.00 | 76 | 1015.2 |
| 20260902143330 | 58 | 107 | 2.0 | 0.0 | 0.00 | 0.00 | 0.00 | 77 | 1015.2 |
| 20260902142022 | 58 | 90 | 1.0 | 0.0 | 0.00 | 0.00 | 0.00 | 77 | 1015.1 |
| 20260902141828 | 58 | 89 | 1.0 | 0.0 | 0.00 | 0.00 | 0.00 | 77 | 1015.1 |
| 20260902140546 | 58 | 61 | 2.0 | 0.0 | 0.00 | 0.00 | 0.00 | 77 | 1015.0 |
| 20260902140332 | 58 | 97 | 1.0 | 0.0 | 0.00 | 0.00 | 0.00 | 77 | 1015.0 |
| 20260902135026 | 57 | 107 | 1.0 | 0.0 | 0.00 | 0.00 | 0.00 | 76 | 1014.9 |
| 20260902134835 | 57 | 109 | 1.0 | 0.0 | 0.00 | 0.00 | 0.00 | 75 | 1014.9 |
| 20260902133535 | 57 | 135 | 1.0 | 0.0 | 0.00 | 0.00 | 0.00 | 74 | 1014.8 |
| 20260902133400 | 57 | 135 | 1.0 | 0.0 | 0.00 | 0.00 | 0.00 | 74 | 1014.8 |
| 20260902132033 | 57 | 171 | 1.0 | 0.0 | 0.00 | 0.00 | 0.00 | 74 | 1014.8 |
| 20260902131824 | 57 | 171 | 1.0 | 0.0 | 0.00 | 0.00 | 0.00 | 74 | 1014.8 |
| 20260902130538 | 57 | 171 | 0.0 | 0.0 | 0.00 | 0.00 | 0.00 | 74 | 1014.7 |
| 20260902130323 | 57 | 171 | 0.0 | 0.0 | 0.00 | 0.00 | 0.00 | 74 | 1014.7 |
| 20260902125035 | 57 | 171 | 0.0 | 0.0 | 0.00 | 0.00 | 0.00 | 74 | 1014.8 |
| 20260902124839 | 57 | 172 | 0.0 | 0.0 | 0.00 | 0.00 | 0.00 | 73 | 1014.8 |
| 20260902123533 | 57 | 172 | 0.0 | 0.0 | 0.00 | 0.00 | 0.00 | 73 | 1014.7 |
| 20260902123322 | 57 | 171 | 0.0 | 0.0 | 0.00 | 0.00 | 0.00 | 73 | 1014.7 |
| 20260902122022 | 57 | 172 | 0.0 | 0.0 | 0.00 | 0.00 | 0.00 | 73 | 1014.7 |
| 20260902121828 | 57 | 172 | 0.0 | 0.0 | 0.00 | 0.00 | 0.00 | 72 | 1014.7 |
| 20260902120525 | 57 | 172 | 0.0 | 0.0 | 0.00 | 0.00 | 0.00 | 73 | 1014.7 |
| 20260902120331 | 57 | 172 | 0.0 | 0.0 | 0.00 | 0.00 | 0.00 | 73 | 1014.7 |
| 20260902115025 | 57 | 172 | 0.0 | 0.0 | 0.00 | 0.00 | 0.00 | 73 | 1014.9 |
| 20260902114855 | 57 | 172 | 0.0 | 0.0 | 0.00 | 0.00 | 0.00 | 73 | 1014.9 |
| 20260902113531 | 57 | 172 | 0.0 | 0.0 | 0.00 | 0.00 | 0.00 | 73 | 1015.2 |
| 20260902113337 | 57 | 173 | 0.0 | 0.0 | 0.00 | 0.00 | 0.00 | 73 | 1015.2 |
| 20260902112029 | 57 | 173 | 0.0 | 0.0 | 0.00 | 0.00 | 0.00 | 73 | 1015.2 |
| 20260902111833 | 57 | 173 | 0.0 | 0.0 | 0.00 | 0.00 | 0.00 | 73 | 1015.2 |